| time (UTC) | temp C | wind direction | speed KPH | gust KPH | rain 1hr cm | rain 24hr cm | rain mn cm | humidity % | barometer mb |
| 20260906213027 | 20 | 355 | 8.0 | 16.1 | 0.00 | 0.00 | 0.00 | 71 | 1018.9 |
| 20260906212533 | 20 | 25 | 9.7 | 16.1 | 0.00 | 0.00 | 0.00 | 71 | 1018.9 |
| 20260906212020 | 20 | 324 | 8.0 | 16.1 | 0.00 | 0.00 | 0.00 | 72 | 1018.9 |
| 20260906211549 | 20 | 47 | 8.0 | 17.7 | 0.00 | 0.00 | 0.00 | 72 | 1018.9 |
| 20260906211024 | 20 | 9 | 11.3 | 17.7 | 0.00 | 0.00 | 0.00 | 73 | 1018.9 |
| 20260906210550 | 20 | 329 | 8.0 | 17.7 | 0.00 | 0.00 | 0.00 | 74 | 1019.0 |
| 20260906210039 | 20 | 344 | 9.7 | 19.3 | 0.00 | 0.00 | 0.00 | 72 | 1019.0 |
| 20260906205529 | 20 | 348 | 12.9 | 19.3 | 0.00 | 0.00 | 0.00 | 72 | 1019.0 |
| 20260906205045 | 20 | 346 | 9.7 | 17.7 | 0.00 | 0.00 | 0.00 | 72 | 1018.9 |
| 20260906204522 | 20 | 332 | 11.3 | 22.5 | 0.00 | 0.00 | 0.00 | 73 | 1018.8 |
| 20260906204047 | 20 | 340 | 12.9 | 22.5 | 0.00 | 0.00 | 0.00 | 71 | 1018.8 |
| 20260906203524 | 20 | 333 | 11.3 | 17.7 | 0.00 | 0.00 | 0.00 | 71 | 1018.8 |
| 20260906203033 | 20 | 343 | 6.4 | 17.7 | 0.00 | 0.00 | 0.00 | 73 | 1018.7 |
| 20260906202521 | 20 | 274 | 11.3 | 17.7 | 0.00 | 0.00 | 0.00 | 71 | 1018.7 |
| 20260906202051 | 20 | 24 | 8.0 | 16.1 | 0.00 | 0.00 | 0.00 | 72 | 1018.6 |
| 20260906201532 | 20 | 309 | 6.4 | 16.1 | 0.00 | 0.00 | 0.00 | 73 | 1018.6 |
| 20260906201031 | 20 | 333 | 9.7 | 14.5 | 0.00 | 0.00 | 0.00 | 73 | 1018.7 |
| 20260906200537 | 20 | 331 | 8.0 | 16.1 | 0.00 | 0.00 | 0.00 | 74 | 1018.7 |
| 20260906200107 | 20 | 360 | 11.3 | 19.3 | 0.00 | 0.00 | 0.00 | 71 | 1018.7 |
| 20260906195548 | 20 | 25 | 12.9 | 19.3 | 0.00 | 0.00 | 0.00 | 72 | 1018.7 |
| 20260906195057 | 20 | 5 | 9.7 | 19.3 | 0.00 | 0.00 | 0.00 | 73 | 1018.8 |
| 20260906194544 | 20 | 342 | 11.3 | 19.3 | 0.00 | 0.00 | 0.00 | 72 | 1018.9 |
| 20260906194034 | 20 | 355 | 8.0 | 20.9 | 0.00 | 0.00 | 0.00 | 73 | 1018.8 |
| 20260906193539 | 20 | 338 | 14.5 | 20.9 | 0.00 | 0.00 | 0.00 | 72 | 1018.7 |
| 20260906193029 | 20 | 336 | 9.7 | 22.5 | 0.00 | 0.00 | 0.00 | 74 | 1018.7 |
| 20260906192522 | 20 | 350 | 11.3 | 22.5 | 0.00 | 0.00 | 0.00 | 72 | 1018.6 |
| 20260906192040 | 20 | 317 | 8.0 | 20.9 | 0.00 | 0.00 | 0.00 | 73 | 1018.6 |
| 20260906191520 | 20 | 16 | 9.7 | 17.7 | 0.00 | 0.00 | 0.00 | 71 | 1018.7 |
| 20260906191024 | 20 | 324 | 11.3 | 17.7 | 0.00 | 0.00 | 0.00 | 71 | 1018.6 |
| 20260906190528 | 20 | 16 | 6.4 | 24.1 | 0.00 | 0.00 | 0.00 | 74 | 1018.6 |
| 20260906190022 | 20 | 339 | 14.5 | 24.1 | 0.00 | 0.00 | 0.00 | 70 | 1018.6 |
| 20260906185554 | 20 | 342 | 11.3 | 24.1 | 0.00 | 0.00 | 0.00 | 73 | 1018.7 |
| 20260906185024 | 20 | 331 | 9.7 | 19.3 | 0.00 | 0.00 | 0.00 | 70 | 1018.7 |
| 20260906184541 | 20 | 26 | 9.7 | 22.5 | 0.00 | 0.00 | 0.00 | 72 | 1018.7 |
| 20260906184106 | 20 | 344 | 14.5 | 22.5 | 0.00 | 0.00 | 0.00 | 71 | 1018.6 |
| 20260906183553 | 20 | 5 | 6.4 | 14.5 | 0.00 | 0.00 | 0.00 | 73 | 1018.6 |
| 20260906183027 | 20 | 342 | 8.0 | 22.5 | 0.00 | 0.00 | 0.00 | 73 | 1018.7 |
| 20260906182540 | 20 | 19 | 14.5 | 22.5 | 0.00 | 0.00 | 0.00 | 72 | 1018.8 |
| 20260906182027 | 20 | 347 | 8.0 | 16.1 | 0.00 | 0.00 | 0.00 | 71 | 1018.8 |
| 20260906181542 | 20 | 334 | 8.0 | 19.3 | 0.00 | 0.00 | 0.00 | 74 | 1018.8 |
| 20260906181034 | 20 | 17 | 11.3 | 22.5 | 0.00 | 0.00 | 0.00 | 73 | 1018.8 |
| 20260906180541 | 20 | 5 | 16.1 | 22.5 | 0.00 | 0.00 | 0.00 | 72 | 1018.8 |
| 20260906180032 | 20 | 325 | 9.7 | 17.7 | 0.00 | 0.00 | 0.00 | 72 | 1018.8 |
| 20260906175538 | 20 | 343 | 11.3 | 24.1 | 0.00 | 0.00 | 0.00 | 74 | 1018.9 |
| 20260906175041 | 20 | 16 | 9.7 | 25.7 | 0.00 | 0.00 | 0.00 | 72 | 1018.8 |
| 20260906174557 | 20 | 336 | 11.3 | 24.1 | 0.00 | 0.00 | 0.00 | 71 | 1018.7 |
| 20260906174021 | 20 | 329 | 14.5 | 20.9 | 0.00 | 0.00 | 0.00 | 71 | 1018.7 |
| 20260906173533 | 20 | 331 | 11.3 | 20.9 | 0.00 | 0.00 | 0.00 | 71 | 1018.8 |
| 20260906173026 | 20 | 343 | 12.9 | 20.9 | 0.00 | 0.00 | 0.00 | 73 | 1018.9 |
| 20260906172530 | 20 | 34 | 9.7 | 19.3 | 0.00 | 0.00 | 0.00 | 72 | 1018.9 |
| 20260906172038 | 20 | 340 | 12.9 | 25.7 | 0.00 | 0.00 | 0.00 | 71 | 1018.9 |
| 20260906171604 | 21 | 355 | 11.3 | 25.7 | 0.00 | 0.00 | 0.00 | 71 | 1018.9 |
| 20260906171103 | 21 | 346 | 16.1 | 22.5 | 0.00 | 0.00 | 0.00 | 69 | 1018.9 |
| 20260906170551 | 21 | 288 | 9.7 | 19.3 | 0.00 | 0.00 | 0.00 | 71 | 1018.9 |
| 20260906170041 | 21 | 337 | 9.7 | 20.9 | 0.00 | 0.00 | 0.00 | 69 | 1018.9 |
| 20260906165556 | 21 | 355 | 12.9 | 27.4 | 0.00 | 0.00 | 0.00 | 68 | 1018.8 |
| 20260906165022 | 21 | 329 | 9.7 | 22.5 | 0.00 | 0.00 | 0.00 | 69 | 1018.7 |
| 20260906164536 | 21 | 26 | 8.0 | 25.7 | 0.00 | 0.00 | 0.00 | 68 | 1018.7 |
| 20260906164029 | 21 | 49 | 14.5 | 25.7 | 0.00 | 0.00 | 0.00 | 68 | 1018.8 |
| 20260906163534 | 21 | 37 | 16.1 | 22.5 | 0.00 | 0.00 | 0.00 | 69 | 1018.8 |
| 20260906163039 | 21 | 18 | 8.0 | 20.9 | 0.00 | 0.00 | 0.00 | 72 | 1018.7 |
| 20260906162549 | 20 | 55 | 8.0 | 20.9 | 0.00 | 0.00 | 0.00 | 70 | 1018.7 |
| 20260906162034 | 20 | 36 | 12.9 | 24.1 | 0.00 | 0.00 | 0.00 | 70 | 1018.7 |
| 20260906161527 | 20 | 19 | 14.5 | 20.9 | 0.00 | 0.00 | 0.00 | 72 | 1018.8 |
| 20260906161043 | 20 | 5 | 11.3 | 22.5 | 0.00 | 0.00 | 0.00 | 73 | 1018.8 |
| 20260906160527 | 21 | 27 | 11.3 | 20.9 | 0.00 | 0.00 | 0.00 | 72 | 1018.8 |
| 20260906160047 | 21 | 32 | 11.3 | 19.3 | 0.00 | 0.00 | 0.00 | 72 | 1018.8 |
| 20260906155525 | 20 | 34 | 9.7 | 17.7 | 0.00 | 0.00 | 0.00 | 75 | 1018.7 |
| 20260906155030 | 20 | 24 | 8.0 | 20.9 | 0.00 | 0.00 | 0.00 | 74 | 1018.8 |
| 20260906154533 | 20 | 15 | 14.5 | 22.5 | 0.00 | 0.00 | 0.00 | 72 | 1018.9 |
| 20260906154040 | 21 | 34 | 11.3 | 22.5 | 0.00 | 0.00 | 0.00 | 74 | 1018.8 |
| 20260906153520 | 21 | 28 | 16.1 | 22.5 | 0.00 | 0.00 | 0.00 | 75 | 1018.7 |
| 20260906153044 | 20 | 9 | 12.9 | 22.5 | 0.00 | 0.00 | 0.00 | 75 | 1018.6 |
| 20260906152533 | 21 | 26 | 11.3 | 20.9 | 0.00 | 0.00 | 0.00 | 74 | 1018.6 |
| 20260906152047 | 21 | 30 | 14.5 | 22.5 | 0.00 | 0.00 | 0.00 | 75 | 1018.6 |
| 20260906151554 | 21 | 355 | 11.3 | 24.1 | 0.00 | 0.00 | 0.00 | 75 | 1018.6 |
| 20260906151027 | 21 | 329 | 14.5 | 24.1 | 0.00 | 0.00 | 0.00 | 74 | 1018.5 |
| 20260906150553 | 21 | 292 | 14.5 | 19.3 | 0.00 | 0.00 | 0.00 | 75 | 1018.6 |
| 20260906150028 | 21 | 336 | 12.9 | 19.3 | 0.00 | 0.00 | 0.00 | 77 | 1018.6 |
| 20260906145555 | 21 | 5 | 9.7 | 16.1 | 0.00 | 0.00 | 0.00 | 77 | 1018.6 |
| 20260906145101 | 21 | 29 | 11.3 | 20.9 | 0.00 | 0.00 | 0.00 | 75 | 1018.7 |
| 20260906144525 | 21 | 42 | 12.9 | 20.9 | 0.00 | 0.00 | 0.00 | 76 | 1018.6 |
| 20260906144023 | 20 | 30 | 6.4 | 16.1 | 0.00 | 0.00 | 0.00 | 79 | 1018.5 |
| 20260906143524 | 20 | 23 | 9.7 | 16.1 | 0.00 | 0.00 | 0.00 | 80 | 1018.6 |
| 20260906143022 | 20 | 34 | 9.7 | 16.1 | 0.00 | 0.00 | 0.00 | 80 | 1018.6 |
| 20260906142529 | 20 | 35 | 8.0 | 14.5 | 0.00 | 0.00 | 0.00 | 82 | 1018.5 |
| 20260906142053 | 20 | 20 | 9.7 | 16.1 | 0.00 | 0.00 | 0.00 | 82 | 1018.5 |
| 20260906141600 | 20 | 19 | 9.7 | 16.1 | 0.00 | 0.00 | 0.00 | 82 | 1018.5 |
| 20260906141037 | 20 | 13 | 8.0 | 12.9 | 0.00 | 0.00 | 0.00 | 81 | 1018.2 |
| 20260906140526 | 20 | 54 | 8.0 | 19.3 | 0.00 | 0.00 | 0.00 | 82 | 1018.2 |
| 20260906140030 | 19 | 13 | 11.3 | 19.3 | 0.00 | 0.00 | 0.00 | 82 | 1018.1 |
| 20260906135558 | 19 | 18 | 8.0 | 14.5 | 0.00 | 0.00 | 0.00 | 82 | 1018.2 |
| 20260906135031 | 19 | 48 | 8.0 | 16.1 | 0.00 | 0.00 | 0.00 | 83 | 1018.1 |
| 20260906134539 | 19 | 20 | 8.0 | 16.1 | 0.00 | 0.00 | 0.00 | 84 | 1018.2 |
| 20260906133526 | 19 | 337 | 6.4 | 16.1 | 0.00 | 0.00 | 0.00 | 85 | 1018.1 |
| 20260906133042 | 19 | 324 | 9.7 | 16.1 | 0.00 | 0.00 | 0.00 | 86 | 1018.1 |
| 20260906132540 | 19 | 344 | 4.8 | 14.5 | 0.00 | 0.00 | 0.00 | 89 | 1018.0 |
| 20260906132026 | 18 | 25 | 6.4 | 14.5 | 0.00 | 0.00 | 0.00 | 89 | 1018.0 |
| 20260906131523 | 18 | 14 | 4.8 | 12.9 | 0.00 | 0.00 | 0.00 | 89 | 1017.9 |
| 20260906131054 | 18 | 60 | 6.4 | 11.3 | 0.00 | 0.00 | 0.00 | 89 | 1017.9 |
| 20260906130522 | 18 | 31 | 6.4 | 11.3 | 0.00 | 0.00 | 0.00 | 90 | 1018.0 |
| 20260906130056 | 18 | 22 | 8.0 | 16.1 | 0.00 | 0.00 | 0.00 | 91 | 1018.1 |
| 20260906125529 | 18 | 23 | 11.3 | 16.1 | 0.00 | 0.00 | 0.00 | 91 | 1018.0 |
| 20260906125022 | 18 | 30 | 9.7 | 17.7 | 0.00 | 0.00 | 0.00 | 92 | 1017.9 |
| 20260906124531 | 18 | 27 | 9.7 | 17.7 | 0.00 | 0.00 | 0.00 | 93 | 1017.9 |
| 20260906124033 | 18 | 40 | 8.0 | 11.3 | 0.00 | 0.00 | 0.00 | 94 | 1017.8 |
| 20260906123557 | 18 | 22 | 6.4 | 14.5 | 0.00 | 0.00 | 0.00 | 95 | 1017.8 |
| 20260906123039 | 17 | 11 | 6.4 | 14.5 | 0.00 | 0.00 | 0.00 | 95 | 1017.8 |
| 20260906122604 | 17 | 30 | 4.8 | 11.3 | 0.00 | 0.00 | 0.00 | 95 | 1017.7 |
| 20260906122037 | 17 | 26 | 4.8 | 9.7 | 0.00 | 0.00 | 0.00 | 95 | 1017.6 |
| 20260906121540 | 17 | 360 | 0.0 | 4.8 | 0.00 | 0.00 | 0.00 | 95 | 1017.6 |
| 20260906121028 | 17 | 5 | 0.0 | 0.0 | 0.00 | 0.00 | 0.00 | 95 | 1017.7 |
| 20260906120541 | 17 | 302 | 0.0 | 0.0 | 0.00 | 0.00 | 0.00 | 95 | 1017.6 |
| 20260906115526 | 16 | 298 | 0.0 | 0.0 | 0.00 | 0.00 | 0.00 | 94 | 1017.5 |
| 20260906115036 | 16 | 298 | 0.0 | 0.0 | 0.00 | 0.00 | 0.00 | 94 | 1017.3 |
| 20260906114603 | 16 | 298 | 0.0 | 0.0 | 0.00 | 0.00 | 0.00 | 94 | 1017.2 |
| 20260906114040 | 16 | 298 | 0.0 | 0.0 | 0.00 | 0.00 | 0.00 | 94 | 1017.2 |
| 20260906113550 | 16 | 298 | 0.0 | 0.0 | 0.00 | 0.00 | 0.00 | 93 | 1017.2 |
| 20260906113056 | 16 | 298 | 0.0 | 0.0 | 0.00 | 0.00 | 0.00 | 93 | 1017.2 |
| 20260906112535 | 16 | 298 | 0.0 | 0.0 | 0.00 | 0.00 | 0.00 | 93 | 1017.2 |
| 20260906112024 | 16 | 298 | 0.0 | 0.0 | 0.00 | 0.00 | 0.00 | 93 | 1017.1 |
| 20260906111535 | 16 | 298 | 0.0 | 0.0 | 0.00 | 0.00 | 0.00 | 93 | 1016.9 |
| 20260906111050 | 16 | 298 | 0.0 | 0.0 | 0.00 | 0.00 | 0.00 | 93 | 1016.9 |
| 20260906110522 | 16 | 298 | 0.0 | 0.0 | 0.00 | 0.00 | 0.00 | 93 | 1016.8 |
| 20260906110021 | 16 | 298 | 0.0 | 0.0 | 0.00 | 0.00 | 0.00 | 93 | 1016.8 |
| 20260906105548 | 16 | 298 | 0.0 | 0.0 | 0.00 | 0.00 | 0.00 | 93 | 1016.8 |
| 20260906105032 | 16 | 298 | 0.0 | 0.0 | 0.00 | 0.00 | 0.00 | 93 | 1016.8 |
| 20260906104549 | 16 | 298 | 0.0 | 0.0 | 0.00 | 0.00 | 0.00 | 93 | 1016.8 |
| 20260906104036 | 16 | 298 | 0.0 | 0.0 | 0.00 | 0.00 | 0.00 | 93 | 1016.7 |
| 20260906103522 | 16 | 298 | 0.0 | 0.0 | 0.00 | 0.00 | 0.00 | 93 | 1016.7 |
| 20260906103026 | 16 | 298 | 0.0 | 0.0 | 0.00 | 0.00 | 0.00 | 93 | 1016.6 |
| 20260906102533 | 16 | 298 | 0.0 | 0.0 | 0.00 | 0.00 | 0.00 | 93 | 1016.5 |
| 20260906102030 | 16 | 298 | 0.0 | 0.0 | 0.00 | 0.00 | 0.00 | 93 | 1016.5 |
| 20260906101539 | 16 | 298 | 0.0 | 0.0 | 0.00 | 0.00 | 0.00 | 93 | 1016.4 |
| 20260906101022 | 16 | 298 | 0.0 | 0.0 | 0.00 | 0.00 | 0.00 | 93 | 1016.4 |
| 20260906100523 | 16 | 298 | 0.0 | 0.0 | 0.00 | 0.00 | 0.00 | 93 | 1016.3 |
| 20260906100028 | 16 | 298 | 0.0 | 0.0 | 0.00 | 0.00 | 0.00 | 93 | 1016.3 |
| 20260906095527 | 16 | 298 | 0.0 | 0.0 | 0.00 | 0.00 | 0.00 | 93 | 1016.2 |
| 20260906095039 | 16 | 298 | 0.0 | 0.0 | 0.00 | 0.00 | 0.00 | 93 | 1016.1 |
| 20260906094544 | 16 | 298 | 0.0 | 0.0 | 0.00 | 0.00 | 0.00 | 93 | 1016.1 |
| 20260906094031 | 16 | 298 | 0.0 | 0.0 | 0.00 | 0.00 | 0.00 | 93 | 1016.1 |
| 20260906093542 | 16 | 298 | 0.0 | 0.0 | 0.00 | 0.00 | 0.00 | 93 | 1016.0 |
| 20260906093043 | 16 | 298 | 0.0 | 0.0 | 0.00 | 0.00 | 0.00 | 92 | 1016.0 |
| 20260906092523 | 16 | 298 | 0.0 | 0.0 | 0.00 | 0.00 | 0.00 | 93 | 1016.0 |
| 20260906092037 | 16 | 298 | 0.0 | 0.0 | 0.00 | 0.00 | 0.00 | 93 | 1015.9 |
| 20260906091524 | 16 | 298 | 0.0 | 0.0 | 0.00 | 0.00 | 0.00 | 92 | 1015.8 |
| 20260906091035 | 16 | 298 | 0.0 | 0.0 | 0.00 | 0.00 | 0.00 | 92 | 1015.7 |
| 20260906090530 | 16 | 298 | 0.0 | 0.0 | 0.00 | 0.00 | 0.00 | 92 | 1015.6 |
| 20260906090039 | 16 | 298 | 0.0 | 0.0 | 0.00 | 0.00 | 0.00 | 92 | 1015.5 |
| 20260906085525 | 16 | 298 | 0.0 | 0.0 | 0.00 | 0.00 | 0.00 | 92 | 1015.4 |
| 20260906085105 | 16 | 298 | 0.0 | 0.0 | 0.00 | 0.00 | 0.00 | 92 | 1015.3 |
| 20260906084532 | 16 | 298 | 0.0 | 0.0 | 0.00 | 0.00 | 0.00 | 92 | 1015.3 |
| 20260906084025 | 16 | 298 | 0.0 | 0.0 | 0.00 | 0.00 | 0.00 | 92 | 1015.3 |
| 20260906083544 | 16 | 298 | 0.0 | 0.0 | 0.00 | 0.00 | 0.00 | 92 | 1015.3 |
| 20260906083027 | 16 | 298 | 0.0 | 0.0 | 0.00 | 0.00 | 0.00 | 92 | 1015.3 |
| 20260906082543 | 16 | 298 | 0.0 | 0.0 | 0.00 | 0.00 | 0.00 | 92 | 1015.2 |
| 20260906082032 | 17 | 298 | 0.0 | 0.0 | 0.00 | 0.00 | 0.00 | 92 | 1015.2 |
| 20260906081536 | 17 | 298 | 0.0 | 0.0 | 0.00 | 0.00 | 0.00 | 92 | 1015.2 |
| 20260906081053 | 17 | 298 | 0.0 | 0.0 | 0.00 | 0.00 | 0.00 | 92 | 1015.2 |
| 20260906080525 | 17 | 298 | 0.0 | 0.0 | 0.00 | 0.00 | 0.00 | 92 | 1015.1 |
| 20260906080055 | 17 | 298 | 0.0 | 0.0 | 0.00 | 0.00 | 0.00 | 92 | 1015.2 |
| 20260906075526 | 17 | 298 | 0.0 | 0.0 | 0.00 | 0.00 | 0.00 | 92 | 1015.2 |
| 20260906075044 | 17 | 298 | 0.0 | 0.0 | 0.00 | 0.00 | 0.00 | 92 | 1015.2 |
| 20260906074542 | 17 | 298 | 0.0 | 0.0 | 0.00 | 0.00 | 0.00 | 92 | 1015.1 |
| 20260906074048 | 17 | 298 | 0.0 | 0.0 | 0.00 | 0.00 | 0.00 | 92 | 1015.1 |
| 20260906073535 | 17 | 298 | 0.0 | 0.0 | 0.00 | 0.00 | 0.00 | 92 | 1015.1 |
| 20260906073039 | 17 | 298 | 0.0 | 0.0 | 0.00 | 0.00 | 0.00 | 92 | 1015.1 |
| 20260906072547 | 17 | 298 | 0.0 | 0.0 | 0.00 | 0.00 | 0.00 | 92 | 1015.0 |
| 20260906072034 | 17 | 298 | 0.0 | 0.0 | 0.00 | 0.00 | 0.00 | 92 | 1015.0 |
| 20260906071551 | 17 | 298 | 0.0 | 0.0 | 0.00 | 0.00 | 0.00 | 92 | 1015.1 |
| 20260906071024 | 17 | 298 | 0.0 | 0.0 | 0.00 | 0.00 | 0.00 | 92 | 1015.1 |
| 20260906070542 | 17 | 298 | 0.0 | 0.0 | 0.00 | 0.00 | 0.00 | 92 | 1015.1 |
| 20260906070029 | 17 | 298 | 0.0 | 0.0 | 0.00 | 0.00 | 0.00 | 92 | 1015.1 |
| 20260906065540 | 17 | 298 | 0.0 | 0.0 | 0.00 | 0.00 | 0.00 | 92 | 1015.1 |
| 20260906065033 | 17 | 298 | 0.0 | 0.0 | 0.00 | 0.00 | 0.00 | 92 | 1015.1 |
| 20260906064533 | 17 | 298 | 0.0 | 0.0 | 0.00 | 0.00 | 0.00 | 92 | 1015.1 |
| 20260906064025 | 17 | 298 | 0.0 | 0.0 | 0.00 | 0.00 | 0.00 | 92 | 1015.2 |
| 20260906063536 | 17 | 298 | 0.0 | 0.0 | 0.00 | 0.00 | 0.00 | 92 | 1015.2 |
| 20260906063059 | 17 | 298 | 0.0 | 0.0 | 0.00 | 0.00 | 0.00 | 92 | 1015.2 |
| 20260906062525 | 17 | 298 | 0.0 | 0.0 | 0.00 | 0.00 | 0.00 | 92 | 1015.2 |
| 20260906062046 | 17 | 298 | 0.0 | 0.0 | 0.00 | 0.00 | 0.00 | 92 | 1015.1 |
| 20260906061600 | 17 | 298 | 0.0 | 0.0 | 0.00 | 0.00 | 0.00 | 92 | 1015.2 |
| 20260906061024 | 17 | 298 | 0.0 | 0.0 | 0.00 | 0.00 | 0.00 | 92 | 1015.2 |
| 20260906060537 | 17 | 298 | 0.0 | 0.0 | 0.00 | 0.00 | 0.00 | 92 | 1015.2 |
| 20260906060030 | 17 | 298 | 0.0 | 0.0 | 0.00 | 0.00 | 0.00 | 92 | 1015.1 |
| 20260906055527 | 17 | 298 | 0.0 | 0.0 | 0.00 | 0.00 | 0.00 | 92 | 1015.1 |
| 20260906055056 | 17 | 298 | 0.0 | 0.0 | 0.00 | 0.00 | 0.00 | 92 | 1015.1 |
| 20260906054544 | 17 | 298 | 0.0 | 0.0 | 0.00 | 0.00 | 0.00 | 92 | 1015.2 |
| 20260906054029 | 17 | 298 | 0.0 | 0.0 | 0.00 | 0.00 | 0.00 | 92 | 1015.2 |
| 20260906053527 | 17 | 298 | 0.0 | 0.0 | 0.00 | 0.00 | 0.00 | 92 | 1015.2 |
| 20260906053040 | 17 | 298 | 0.0 | 0.0 | 0.00 | 0.00 | 0.00 | 92 | 1015.3 |
| 20260906052523 | 17 | 298 | 0.0 | 0.0 | 0.00 | 0.00 | 0.00 | 92 | 1015.3 |
| 20260906052041 | 17 | 298 | 0.0 | 0.0 | 0.00 | 0.00 | 0.00 | 92 | 1015.3 |
| 20260906051536 | 17 | 298 | 0.0 | 0.0 | 0.00 | 0.00 | 0.00 | 92 | 1015.3 |
| 20260906051036 | 17 | 298 | 0.0 | 0.0 | 0.00 | 0.00 | 0.00 | 92 | 1015.4 |
| 20260906050522 | 17 | 298 | 0.0 | 0.0 | 0.00 | 0.00 | 0.00 | 92 | 1015.4 |
| 20260906050034 | 17 | 298 | 0.0 | 0.0 | 0.00 | 0.00 | 0.00 | 91 | 1015.3 |
| 20260906045606 | 17 | 298 | 0.0 | 0.0 | 0.00 | 0.00 | 0.00 | 91 | 1015.2 |
| 20260906045031 | 17 | 298 | 0.0 | 0.0 | 0.00 | 0.00 | 0.00 | 91 | 1015.2 |
| 20260906044526 | 17 | 298 | 0.0 | 0.0 | 0.00 | 0.00 | 0.00 | 91 | 1015.2 |
| 20260906044037 | 17 | 298 | 0.0 | 0.0 | 0.00 | 0.00 | 0.00 | 91 | 1015.1 |
| 20260906043548 | 17 | 298 | 0.0 | 0.0 | 0.00 | 0.00 | 0.00 | 91 | 1015.0 |
| 20260906043047 | 17 | 298 | 0.0 | 0.0 | 0.00 | 0.00 | 0.00 | 90 | 1015.0 |
| 20260906042533 | 17 | 298 | 0.0 | 0.0 | 0.00 | 0.00 | 0.00 | 90 | 1015.0 |
| 20260906042032 | 17 | 298 | 0.0 | 0.0 | 0.00 | 0.00 | 0.00 | 90 | 1015.1 |
| 20260906041550 | 17 | 298 | 0.0 | 0.0 | 0.00 | 0.00 | 0.00 | 90 | 1015.1 |
| 20260906041034 | 17 | 298 | 0.0 | 0.0 | 0.00 | 0.00 | 0.00 | 90 | 1015.1 |
| 20260906040549 | 17 | 298 | 0.0 | 0.0 | 0.00 | 0.00 | 0.00 | 90 | 1015.1 |
| 20260906040024 | 18 | 298 | 0.0 | 0.0 | 0.00 | 0.00 | 0.00 | 90 | 1015.1 |
| 20260906035552 | 18 | 298 | 0.0 | 0.0 | 0.00 | 0.00 | 0.00 | 90 | 1015.0 |
| 20260906035024 | 18 | 298 | 0.0 | 0.0 | 0.00 | 0.00 | 0.00 | 90 | 1015.0 |
| 20260906034551 | 18 | 298 | 0.0 | 0.0 | 0.00 | 0.00 | 0.00 | 90 | 1015.0 |
| 20260906034029 | 18 | 298 | 0.0 | 0.0 | 0.00 | 0.00 | 0.00 | 90 | 1015.0 |
| 20260906033533 | 18 | 298 | 0.0 | 0.0 | 0.00 | 0.00 | 0.00 | 90 | 1014.9 |
| 20260906033108 | 18 | 298 | 0.0 | 0.0 | 0.00 | 0.00 | 0.00 | 90 | 1014.9 |
| 20260906032554 | 18 | 298 | 0.0 | 0.0 | 0.00 | 0.00 | 0.00 | 90 | 1014.9 |
| 20260906032038 | 18 | 298 | 0.0 | 0.0 | 0.00 | 0.00 | 0.00 | 89 | 1015.0 |
| 20260906031533 | 18 | 298 | 0.0 | 0.0 | 0.00 | 0.00 | 0.00 | 89 | 1015.0 |
| 20260906031041 | 18 | 298 | 0.0 | 0.0 | 0.00 | 0.00 | 0.00 | 89 | 1015.0 |
| 20260906030527 | 18 | 298 | 0.0 | 0.0 | 0.00 | 0.00 | 0.00 | 89 | 1014.8 |
| 20260906030039 | 18 | 298 | 0.0 | 0.0 | 0.00 | 0.00 | 0.00 | 89 | 1014.8 |
| 20260906025546 | 18 | 298 | 0.0 | 0.0 | 0.00 | 0.00 | 0.00 | 89 | 1014.8 |
| 20260906025027 | 18 | 298 | 0.0 | 0.0 | 0.00 | 0.00 | 0.00 | 88 | 1014.8 |
| 20260906024540 | 18 | 298 | 0.0 | 0.0 | 0.00 | 0.00 | 0.00 | 88 | 1014.7 |
| 20260906024044 | 18 | 298 | 0.0 | 0.0 | 0.00 | 0.00 | 0.00 | 88 | 1014.7 |
| 20260906023552 | 18 | 298 | 0.0 | 0.0 | 0.00 | 0.00 | 0.00 | 88 | 1014.7 |
| 20260906023037 | 18 | 298 | 0.0 | 0.0 | 0.00 | 0.00 | 0.00 | 88 | 1014.8 |
| 20260906022543 | 18 | 296 | 0.0 | 0.0 | 0.00 | 0.00 | 0.00 | 88 | 1014.8 |
| 20260906022057 | 18 | 296 | 0.0 | 0.0 | 0.00 | 0.00 | 0.00 | 87 | 1014.7 |
| 20260906021530 | 18 | 296 | 0.0 | 0.0 | 0.00 | 0.00 | 0.00 | 87 | 1014.7 |
| 20260906021025 | 18 | 296 | 0.0 | 0.0 | 0.00 | 0.00 | 0.00 | 86 | 1014.6 |
| 20260906020533 | 18 | 296 | 0.0 | 0.0 | 0.00 | 0.00 | 0.00 | 86 | 1014.6 |
| 20260906020029 | 18 | 296 | 0.0 | 0.0 | 0.00 | 0.00 | 0.00 | 86 | 1014.7 |
| 20260906015559 | 18 | 296 | 0.0 | 0.0 | 0.00 | 0.00 | 0.00 | 86 | 1014.7 |
| 20260906015051 | 18 | 296 | 0.0 | 0.0 | 0.00 | 0.00 | 0.00 | 86 | 1014.7 |
| 20260906014539 | 18 | 296 | 0.0 | 0.0 | 0.00 | 0.00 | 0.00 | 86 | 1014.6 |
| 20260906014044 | 19 | 296 | 0.0 | 0.0 | 0.00 | 0.00 | 0.00 | 86 | 1014.5 |
| 20260906013540 | 19 | 296 | 0.0 | 0.0 | 0.00 | 0.00 | 0.00 | 86 | 1014.5 |
| 20260906013023 | 19 | 296 | 0.0 | 0.0 | 0.00 | 0.00 | 0.00 | 86 | 1014.5 |
| 20260906012545 | 19 | 296 | 0.0 | 0.0 | 0.00 | 0.00 | 0.00 | 85 | 1014.5 |
| 20260906012059 | 19 | 296 | 0.0 | 0.0 | 0.00 | 0.00 | 0.00 | 84 | 1014.5 |
| 20260906011530 | 19 | 296 | 0.0 | 0.0 | 0.00 | 0.00 | 0.00 | 84 | 1014.5 |
| 20260906011029 | 19 | 296 | 0.0 | 0.0 | 0.00 | 0.00 | 0.00 | 84 | 1014.4 |
| 20260906010527 | 20 | 296 | 0.0 | 0.0 | 0.00 | 0.00 | 0.00 | 84 | 1014.5 |
| 20260906010050 | 20 | 296 | 0.0 | 0.0 | 0.00 | 0.00 | 0.00 | 84 | 1014.5 |
| 20260906005527 | 20 | 296 | 0.0 | 0.0 | 0.00 | 0.00 | 0.00 | 83 | 1014.5 |
| 20260906005034 | 20 | 296 | 0.0 | 0.0 | 0.00 | 0.00 | 0.00 | 82 | 1014.4 |
| 20260906004532 | 20 | 296 | 0.0 | 0.0 | 0.00 | 0.00 | 0.00 | 83 | 1014.4 |
| 20260906004026 | 20 | 296 | 0.0 | 0.0 | 0.00 | 0.00 | 0.00 | 83 | 1014.3 |
| 20260906003550 | 20 | 296 | 0.0 | 0.0 | 0.00 | 0.00 | 0.00 | 82 | 1014.2 |
| 20260906003024 | 20 | 296 | 0.0 | 0.0 | 0.00 | 0.00 | 0.00 | 81 | 1014.2 |
| 20260906002552 | 20 | 296 | 0.0 | 0.0 | 0.00 | 0.00 | 0.00 | 82 | 1014.2 |
| 20260906002027 | 20 | 296 | 0.0 | 0.0 | 0.00 | 0.00 | 0.00 | 82 | 1014.3 |
| 20260906001554 | 20 | 296 | 0.0 | 0.0 | 0.00 | 0.00 | 0.00 | 81 | 1014.3 |
| 20260906001029 | 20 | 296 | 0.0 | 0.0 | 0.00 | 0.00 | 0.00 | 81 | 1014.4 |
| 20260906000600 | 21 | 296 | 0.0 | 0.0 | 0.00 | 0.00 | 0.00 | 80 | 1014.4 |
| 20260906000026 | 21 | 296 | 0.0 | 0.0 | 0.00 | 0.00 | 0.00 | 80 | 1014.4 |
| 20260905235539 | 21 | 296 | 0.0 | 0.0 | 0.00 | 0.00 | 0.00 | 79 | 1014.4 |
| 20260905235053 | 21 | 296 | 0.0 | 0.0 | 0.00 | 0.00 | 0.00 | 78 | 1014.3 |
| 20260905234541 | 21 | 296 | 0.0 | 0.0 | 0.00 | 0.00 | 0.00 | 78 | 1014.3 |
| 20260905234023 | 21 | 296 | 0.0 | 0.0 | 0.00 | 0.00 | 0.00 | 78 | 1014.3 |
| 20260905233525 | 21 | 296 | 0.0 | 0.0 | 0.00 | 0.00 | 0.00 | 78 | 1014.3 |
| 20260905233038 | 21 | 296 | 0.0 | 0.0 | 0.00 | 0.00 | 0.00 | 78 | 1014.3 |
| 20260905232542 | 21 | 296 | 0.0 | 0.0 | 0.00 | 0.00 | 0.00 | 78 | 1014.3 |
| 20260905232032 | 21 | 296 | 0.0 | 0.0 | 0.00 | 0.00 | 0.00 | 78 | 1014.4 |
| 20260905231559 | 21 | 300 | 0.0 | 4.8 | 0.00 | 0.00 | 0.00 | 78 | 1014.4 |
| 20260905231044 | 21 | 315 | 1.6 | 6.4 | 0.00 | 0.00 | 0.00 | 78 | 1014.3 |
| 20260905230529 | 21 | 331 | 1.6 | 6.4 | 0.00 | 0.00 | 0.00 | 78 | 1014.3 |
| 20260905230024 | 21 | 322 | 3.2 | 9.7 | 0.00 | 0.00 | 0.00 | 78 | 1014.3 |
| 20260905225548 | 21 | 324 | 3.2 | 9.7 | 0.00 | 0.00 | 0.00 | 78 | 1014.4 |
| 20260905225031 | 21 | 298 | 3.2 | 11.3 | 0.00 | 0.00 | 0.00 | 78 | 1014.3 |
| 20260905224531 | 21 | 355 | 6.4 | 11.3 | 0.00 | 0.00 | 0.00 | 78 | 1014.5 |
| 20260905224043 | 21 | 342 | 6.4 | 11.3 | 0.00 | 0.00 | 0.00 | 77 | 1014.4 |
| 20260905223544 | 21 | 325 | 1.6 | 12.9 | 0.00 | 0.00 | 0.00 | 77 | 1014.4 |
| 20260905223030 | 21 | 333 | 4.8 | 12.9 | 0.00 | 0.00 | 0.00 | 76 | 1014.3 |
| 20260905222524 | 21 | 292 | 3.2 | 9.7 | 0.00 | 0.00 | 0.00 | 77 | 1014.1 |
| 20260905222041 | 21 | 360 | 4.8 | 12.9 | 0.00 | 0.00 | 0.00 | 76 | 1014.2 |
| 20260905221541 | 21 | 341 | 8.0 | 19.3 | 0.00 | 0.00 | 0.00 | 76 | 1014.1 |
| 20260905221030 | 21 | 336 | 9.7 | 19.3 | 0.00 | 0.00 | 0.00 | 75 | 1014.2 |
| 20260905220542 | 21 | 315 | 11.3 | 17.7 | 0.00 | 0.00 | 0.00 | 75 | 1014.2 |
| 20260905220038 | 22 | 344 | 9.7 | 16.1 | 0.00 | 0.00 | 0.00 | 76 | 1014.0 |
| 20260905215558 | 22 | 340 | 11.3 | 16.1 | 0.00 | 0.00 | 0.00 | 77 | 1014.0 |
| 20260905215035 | 22 | 355 | 8.0 | 11.3 | 0.00 | 0.00 | 0.00 | 77 | 1014.0 |
| 20260905214542 | 22 | 323 | 4.8 | 12.9 | 0.00 | 0.00 | 0.00 | 77 | 1013.9 |
| 20260905214033 | 22 | 329 | 4.8 | 12.9 | 0.00 | 0.00 | 0.00 | 77 | 1013.9 |
| 20260905213536 | 22 | 335 | 3.2 | 11.3 | 0.00 | 0.00 | 0.00 | 77 | 1013.8 |